Tracking 20241 objects as of 27-Jan-2020
HD Live streaming from Space Station
objects crossing your sky now

USA 136

Track USA 136 now!
USA 136 is classified as:


NORAD ID: 25034
Int'l Code: 1997-068A
Perigee: 4,147.9 km
Apogee: 36,225.8 km
Inclination: 63.4 °
Period: 717.9 minutes
Semi major axis: 26557 km
RCS: Unknown
Launch date: November 8, 1997
Source: United States (US)
Launch site: AIR FORCE EASTERN TEST RANGE (AFETR)

Signals intelligence; surveillance of cellular phones.
aabbcc
Your satellite tracking list
Your tracking list is empty




NASA's NSSDC Master Catalog

Two Line Element Set (TLE):
1 25034U 97068A   20019.68125413 0.00000000  00000-0  00000-0 0    09
2 25034  63.3986 147.6128 6039243 280.6595  20.4155  2.00592020    09
Source of the keplerian elements: McCants